Regional Weather Roundup
Issued by NWS Nashville, TN

Home | Current Version | Previous Version | Text Only | Print | Product List | Glossary On
Versions: 1 2 3 4 5 6 7 8 9 10 11 12 13 14 15 16 17 18 19 20 21 22 23 24 25 26 27 28 29 30 31 32 33 34 35 36 37 38 39 40 41 42 43 44 45 46 47 48 49 50
000
ASUS44 KOHX 252310
RWROHX
MIDDLE TENNESSEE HOURLY WEATHER ROUNDUP
NATIONAL WEATHER SERVICE NASHVILLE TN
600 PM CDT SUN JUN 25 2017

NOTE: "FAIR" INDICATES FEW OR NO CLOUDS BELOW 12,000 FEET WITH
NO SIGNIFICANT WEATHER AND/OR OBSTRUCTIONS TO VISIBILITY.

* THESE REPORTS ARE NOT UNDER NWS QUALITY CONTROL AND MAY NOT
  REPORT WEATHER SUCH AS PRECIPITATION AND FOG.


TNZ005>011-023>034-057-059-062>066-078-080-260000
...NORTHERN MIDDLE TENNESSEE...

CITY           SKY/WX    TMP DP  RH WIND       PRES   REMARKS
CLARKSVILLE    SUNNY     80  48  32 NW12      30.15F
CROSSVILLE     SUNNY     74  44  34 N9        30.20S
GALLATIN       SUNNY     81  48  32 VRB6G12   30.17F
NASHVILLE      MOSUNNY   82  48  30 NW7       30.16F
PORTLAND       SUNNY     79  48  34 NW3       30.15F
SMYRNA         SUNNY     81  49  32 NW8       30.16F
SPARTA         SUNNY     77  50  38 VRB5G12   30.17R
SPRINGFIELD    SUNNY     81  50  34 NW6       30.15S
WEST NASHVILLE SUNNY     81  50  34 W9        30.14S
$$
TNZ056-058-060-061-075>077-079-093>097-260000
...SOUTHERN MIDDLE TENNESSEE...

CITY           SKY/WX    TMP DP  RH WIND       PRES   REMARKS
COLUMBIA       SUNNY     81  48  32 N5G12     30.15S
FAYETTEVILLE   SUNNY     79  50  36 N9        30.16S
MCMINNVILLE    SUNNY     79  50  36 N8        30.17S
MURFREESBORO   SUNNY     81  44  26 NW9       30.15S
PULASKI        SUNNY     81  50  34 N8        30.16S
SHELBYVILLE    SUNNY     79  50  36 N9        30.16S
TULLAHOMA      SUNNY     77  45  31 N9        30.18S
WINCHESTER     SUNNY     79  48  34 N9          N/A
$$


...KEY TO REMARKS...
VSB - VISIBILITY IN MILES
WCI - WIND CHILL INDEX
HX  - HEAT INDEX




USA.gov is the U.S. government's official web portal to all federal, state and local government web resources and services.